Tracking 28096 objects as of 27-Sep-2023
HD Live streaming from Space Station
objects crossing your sky now

FLOCK 4Y 24

Track FLOCK 4Y 24 now!
10-day predictions
FLOCK 4Y 24 is classified as:


NORAD ID: 55020
Int'l Code: 2023-001M
Perigee: 505.2 km
Apogee: 519.9 km
Inclination: 97.5 °
Period: 94.7 minutes
Semi major axis: 6883 km
RCS: Unknown
Launch date: January 3, 2023
Source: United States (US)
Launch site: AIR FORCE EASTERN TEST RANGE (AFETR)
Your satellite tracking list
Your tracking list is empty




NASA's NSSDC Master Catalog

Two Line Element Set (TLE):
1 55020U 23001M   23270.43007118  .00012724  00000-0  59018-3 0  9998
2 55020  97.4673 329.1063 0010660  24.9697 335.2052 15.20136874 40601
Source of the keplerian elements: AFSPC